Location: Cucq
(50.4773°N, 1.6202°E)
Time: 06:44:41
(UTC+00:00)

Landsat 5 - Pass Details

Date: 07 August 2020
Orbit: 529 x 654 km, 98.2° (Epoch: 26 September)

Event Time Altitude Azimuth Distance (km) Brightness Sun altitude
Rises 03:19:48 0° 164° (SSE) 2,681 6.6 -10.1°
Reaches altitude 10° 03:21:53 10° 164° (SSE) 1,807 5.7 -9.8°
Maximum altitude 03:25:46 89° 239° (WSW) 563 3.3 -9.4°
Drops below altitude 10° 03:29:51 10° 346° (NNW) 1,884 6.4 -8.9°
Sets 03:32:03 0° 346° (NNW) 2,808 7.3 -8.6°
